Location: Newark
(42.8481°N, 0.4872°E)
Time: 17:10:00
(UTC+00:00)

A-11 Canister half - Pass Details

Date: 31 October 2020
Orbit: 1525 x 1683 km, 47.3° (Epoch: 22 November)

Event Time Altitude Azimuth Distance (km) Brightness Sun altitude
Rises 11:05:17 0° 184° (S) 4,844 12.7 32.2°
Reaches altitude 10° 11:09:35 10° 168° (SSE) 3,833 12.6 32.3°
Maximum altitude 11:15:56 20° 127° (SE) 3,092 11.5 32.5°
Drops below altitude 10° 11:22:09 10° 85° (E) 3,762 11.2 32.6°
Sets 11:26:16 0° 70° (ENE) 4,725 11.4 32.7°
